星链-34280 (STARLINK-34280)

导读 | 豆包AI

STARLINK-34280是美国SpaceX公司星链(Starlink)星座的第二代卫星,于2025年6月25日发射入轨。作为低轨宽带星座的组成部分,它运行在550公里左右近地轨道,配备激光星间链路与相控阵天线,可提供高速低延迟宽带通信,为全球偏远地区、海上移动场景及应急场景提供互联网接入服务,是星链二代全球覆盖建设中的一员,助力SpaceX实现全球无缝卫星通信网络部署。

基本信息
目录编号:
64594
目录名称:
STARLINK-34280
国际标识:
2025-137A
轨道中心:
EARTH
卫星名称:
星链-34280
卫星全名:
星链-34280 (STARLINK-34280)
卫星状态:
在轨 (已飞行262 天)
发射日期:
2025-06-25 UTC
国别 :
美国 (US)
星等 :
--
轨道信息
数据来源 国际轨道数据
星历时间: 2026-03-14T06:13:20+0800
17小时前
查看轨道信息
半长轴: 6853.341km
偏心率: 0.000176
轨道倾角: 53.160°
近地点辐角 97.736°
升交点赤经 315.555°
平近点角 262.384°
近地点: 473.997km
远地点: 476.411km
周期: 94.105分钟
每日圈数: 15.30204
详细信息
固有亮度:
5
最大亮度:
2.5
卫星平台:
Starlink V1.0
覆盖范围:
全球
运营商:
太空探索技术公司
运营商所在国:
美国
制造商(研发单位):
太空探索技术公司
制造商所在国:
美国
使用方式:
暂无
卫星简介
Starlink 计划是 SpaceX 推出的全球卫星互联网项目,通过发射低轨道卫星,为全球尤其是偏远地区提供高速、低延迟的互联网服务。自 2019 年起,Starlink 已部署数千颗卫星,旨在缩小全球数字鸿沟,推动互联网普及。该项目还为军事、航空等行业提供通信支持,带来广泛经济效益。
2D轨道图
3D轨道图
轨道高度分析图
轨道倾角分析图
轨道综合分析图
查看轨道综合分析图